This is the latest recevied weather packets stored in our database for station/object K1RFS. If no packets are shown the sender has not sent any weather packets the latest 10 day(s).
| Time | Temp. | Humidity | Pressure | Rain* | Wind** | Luminosity | Snow |
|---|---|---|---|---|---|---|---|
| 1788099836 | 14.44° C | 92% | 1003.6 hPa | 0 mm | - | 24 W/m² | - |
| 1788099531 | 14.44° C | 93% | 1003.6 hPa | 0 mm | - | 21 W/m² | - |
| 1788099226 | 13.89° C | 94% | 1003.7 hPa | 0 mm | - | 20 W/m² | - |
| 1788098921 | 13.89° C | 94% | 1003.7 hPa | 0 mm | - | 20 W/m² | - |
| 1788098617 | 13.89° C | 94% | 1003.2 hPa | 0 mm | - | 19 W/m² | - |
| 1788098316 | 13.89° C | 94% | 1003.4 hPa | 0 mm | - | 14 W/m² | - |
| 1788098012 | 13.89° C | 94% | 1003.4 hPa | 0 mm | - | 12 W/m² | - |
| 1788097708 | 13.89° C | 94% | 1003.3 hPa | 0 mm | - | 11 W/m² | - |
| 1788097408 | 13.89° C | 94% | 1003.2 hPa | 0 mm | - | 10 W/m² | - |
| 1788097104 | 13.89° C | 94% | 1003.2 hPa | 0 mm | - | 9 W/m² | - |
| 1788096800 | 14.44° C | 94% | 1003.1 hPa | 0 mm | - | 7 W/m² | - |
| 1788096495 | 14.44° C | 94% | 1003.2 hPa | 0 mm | - | 7 W/m² | - |
| 1788096191 | 14.44° C | 94% | 1003.1 hPa | 0 mm | - | 6 W/m² | - |
| 1788095889 | 14.44° C | 94% | 1003 hPa | 0 mm | - | 5 W/m² | - |
| 1788095584 | 14.44° C | 94% | 1003.2 hPa | 0 mm | - | 4 W/m² | - |
| 1788095279 | 14.44° C | 94% | 1003 hPa | 0 mm | - | 4 W/m² | - |
| 1788094974 | 14.44° C | 94% | 1003.3 hPa | 0 mm | - | 8 W/m² | - |
| 1788094673 | 14.44° C | 94% | 1003.2 hPa | 0 mm | - | 4 W/m² | - |
| 1788094369 | 14.44° C | 93% | 1003 hPa | 0 mm | - | 1 W/m² | - |
| 1788094066 | 14.44° C | 93% | 1002.8 hPa | 0 mm | - | 1 W/m² | - |
| 1788093767 | 14.44° C | 93% | 1002.9 hPa | 0 mm | - | 0 W/m² | - |
| 1788093464 | 14.44° C | 93% | 1003.2 hPa | 0 mm | - | 0 W/m² | - |
| 1788093160 | 13.89° C | 92% | 1002.9 hPa | 0 mm | - | 0 W/m² | - |
| 1788092857 | 13.89° C | 92% | 1003.2 hPa | 1.27 mm | - | 0 W/m² | - |
| 1788092552 | 13.89° C | 92% | 1003.1 hPa | 3.05 mm | - | 0 W/m² | - |
* Rain latest hour (hover to see other rain measurements)
** Current wind speed in m/s (hover to see current wind gust speed)